This demonstration page uses our WeatherBlox Daily Observations layout. Learn more.

Left ArrowRight Arrow

Hourly Observations for August 15, 2017

Temp ( °F °C ) Dew Point ( °F °C ) Humidity (%) Winds ( mph kmh ) Pressure ( in mb ) Visibility ( mi km ) Precip ( " mm )
12:35 pm 12:35 undefined 78 25.3 69 20.6 75 75 NNW 6 9 29.94 1014 N/A 0.00 0.00
12:55 pm 12:55 Sunny 80 26.4 69 20.6 71 71 WNW 6 9 29.94 1014 10 16 0.00 0.00
1:15 pm 13:15 Sunny 81 27.3 69 20.8 68 68 WSW 7 11 29.94 1014 10 16 0.00 0.00
1:35 pm 13:35 Sunny 81 27 69 20.4 67 67 W 5 7 29.94 1014 10 16 0.00 0.00
1:55 pm 13:55 Sunny 81 27.2 68 20.2 66 66 WSW 8 13 29.94 1014 10 16 0.00 0.00
2:15 pm 14:15 Sunny 82 28 67 19.5 60 60 WSW 7 11 29.91 1013 10 16 0.00 0.00
2:30 pm 14:30 Sunny 83 28.3 69 20.5 63 63 W 7 11 29.91 1013 10 16 0.00 0.00
2:55 pm 14:55 Sunny 83 28.4 67 19.7 59 59 W 8 13 29.91 1013 10 16 0.00 0.00
3:15 pm 15:15 Sunny 83 28.4 67 19.3 58 58 WSW 6 9 29.91 1013 10 16 0.00 0.00
3:35 pm 15:35 Partly Cloudy 81 27.4 68 19.9 64 64 W 5 7 29.91 1013 10 16 0.00 0.00
3:55 pm 15:55 Partly Cloudy 83 28.4 67 19.3 58 58 WSW 6 9 29.91 1013 10 16 0.00 0.00
4:15 pm 16:15 Partly Cloudy 84 28.8 68 19.9 59 59 WSW 7 11 29.91 1013 10 16 0.00 0.00
4:35 pm 16:35 Sunny 84 29.1 68 20.1 58 58 W 8 13 29.91 1013 10 16 0.00 0.00
4:55 pm 16:55 Sunny 84 29.1 68 20.2 59 59 W 8 13 29.91 1013 10 16 0.00 0.00
5:15 pm 17:15 Sunny 84 28.9 68 20 59 59 W 7 11 29.91 1013 10 16 0.00 0.00
5:35 pm 17:35 Partly Cloudy 84 28.7 67 19.6 58 58 WSW 7 11 29.91 1013 10 16 0.00 0.00
5:55 pm 17:55 Mostly Cloudy 84 28.7 67 19.6 58 58 WSW 7 11 29.91 1013 10 16 0.00 0.00
6:15 pm 18:15 Partly Cloudy 83 28.5 68 19.8 59 59 WNW 8 13 29.91 1013 10 16 0.00 0.00
6:35 pm 18:35 Sunny 82 27.8 67 19.6 61 61 WSW 5 7 29.91 1013 10 16 0.00 0.00
6:55 pm 18:55 Partly Cloudy 83 28.2 67 19.2 58 58 WSW 6 9 29.91 1013 10 16 0.00 0.00
7:15 pm 19:15 Partly Cloudy 80 26.9 67 19.6 64 64 Calm 29.91 1013 10 16 0.00 0.00
7:35 pm 19:35 Partly Cloudy 80 26.4 70 20.9 72 72 N 3 6 29.91 1013 10 16 0.00 0.00
7:55 pm 19:55 Partly Cloudy 78 25.4 70 21.2 78 78 Calm 29.91 1013 10 16 0.00 0.00
8:15 pm 20:15 Sunny 76 24.6 71 21.4 82 82 Calm 29.91 1013 10 16 0.00 0.00
8:35 pm 20:35 Sunny 75 23.9 70 21.2 85 85 Calm 29.91 1013 10 16 0.00 0.00
8:55 pm 20:55 Clear 71 21.8 69 20.5 92 92 N 3 6 29.91 1013 10 16 0.00 0.00
9:15 pm 21:15 Clear 72 22.1 69 20.5 91 91 Calm 29.91 1013 10 16 0.00 0.00
9:35 pm 21:35 Clear 71 21.7 68 20.1 91 91 Calm 29.94 1014 10 16 0.00 0.00
9:55 pm 21:55 Clear 70 21.1 68 19.9 93 93 Calm 29.94 1014 10 16 0.00 0.00
10:15 pm 22:15 Clear 69 20.5 67 19.6 95 95 Calm 29.97 1015 10 16 0.00 0.00
10:35 pm 22:35 Clear 69 20.4 67 19.5 95 95 Calm 29.97 1015 10 16 0.00 0.00
10:55 pm 22:55 Clear 69 20.5 67 19.4 93 93 Calm 29.97 1015 10 16 0.00 0.00
11:15 pm 23:15 Clear 68 19.8 66 19 95 95 Calm 29.97 1015 7 11 0.00 0.00
11:35 pm 23:35 Clear 67 19.6 66 18.7 95 95 Calm 30.00 1016 10 16 0.00 0.00
11:55 pm 23:55 Partly Cloudy 68 19.9 66 19.1 95 95 Calm 30.00 1016 10 16 0.00 0.00

Powered by AerisWeather